EW9136 Weather Reports


Display with metric or nautical units.
time (UTC)temp
F
wind
direction
speed
MPH
gust
MPH
rain 1hr
in
rain 24hr
in
rain mn
in
humidity
%
barometer
mb
20260510210019 45 154 7.0 13.0 0.00 0.01 0.00 75 1013.2
20260510204524 44 171 9.0 13.0 0.00 0.01 0.00 75 1013.5
20260510203014 45 159 11.0 16.0 0.00 0.01 0.00 75 1013.7
20260510201510 45 148 10.0 15.0 0.00 0.01 0.00 74 1014.0
20260510200009 45 164 9.0 13.0 0.00 0.01 0.00 74 1014.1
20260510194512 45 141 8.0 16.0 0.00 0.01 0.00 73 1014.1
20260510193006 46 167 9.0 14.0 0.00 0.01 0.00 72 1014.2
20260510191505 46 147 10.0 16.0 0.00 0.01 0.00 72 1014.3
20260510190004 47 179 8.0 12.0 0.00 0.02 0.00 71 1014.5
20260510184501 48 147 8.0 14.0 0.00 0.02 0.00 70 1014.7
20260510183111 49 148 7.0 13.0 0.00 0.02 0.00 70 1014.8
20260510181617 49 152 6.0 14.0 0.00 0.02 0.00 69 1015.1
20260510180104 51 158 4.0 9.0 0.00 0.02 0.00 64 1015.3
20260510174604 51 127 1.0 7.0 0.00 0.02 0.00 63 1015.4
20260510173054 52 108 3.0 7.0 0.00 0.02 0.00 63 1015.7
20260510171607 52 100 2.0 6.0 0.00 0.02 0.00 62 1016.0
20260510170049 52 64 4.0 9.0 0.00 0.02 0.00 62 1016.2
20260510164642 52 56 4.0 7.0 0.00 0.02 0.00 61 1016.5
20260510163050 52 84 5.0 11.0 0.00 0.02 0.00 59 1016.7
20260510161538 54 55 5.0 11.0 0.00 0.02 0.00 58 1017.0
20260510160040 55 72 5.0 10.0 0.00 0.02 0.00 58 1017.2
20260510154535 55 69 4.0 10.0 0.00 0.02 0.00 58 1017.4
20260510153038 55 43 5.0 12.0 0.00 0.02 0.00 57 1017.6
20260510151528 55 342 4.0 12.0 0.00 0.02 0.00 55 1018.0
20260510150026 53 90 4.0 14.0 0.00 0.04 0.00 60 1018.3
20260510144524 54 88 9.0 17.0 0.00 0.04 0.00 59 1018.6
20260510143020 54 52 8.0 17.0 0.00 0.04 0.00 55 1019.0
20260510141518 55 61 11.0 17.0 0.00 0.04 0.00 56 1019.1
20260510140021 54 49 8.0 18.0 0.00 0.04 0.00 61 1019.3
20260510134514 54 48 9.0 19.0 0.00 0.04 0.00 59 1019.6
20260510133013 52 60 9.0 15.0 0.00 0.04 0.00 62 1019.7
20260510131510 55 343 9.0 17.0 0.00 0.04 0.00 60 1019.8
20260510130008 56 52 7.0 12.0 0.00 0.04 0.00 58 1019.9
20260510124505 55 32 8.0 14.0 0.00 0.04 0.00 63 1020.0
20260510123004 54 52 10.0 16.0 0.00 0.04 0.00 60 1020.3
20260510121501 54 21 10.0 16.0 0.00 0.04 0.00 61 1020.4
20260510120059 55 5 9.0 18.0 0.00 0.04 0.00 64 1020.5
20260510114620 54 75 8.0 13.0 0.00 0.04 0.00 64 1020.7
20260510113059 53 59 11.0 18.0 0.00 0.04 0.00 64 1020.8
20260510111553 53 61 8.0 15.0 0.00 0.04 0.00 65 1021.0
20260510110055 52 63 10.0 16.0 0.00 0.04 0.00 65 1021.3
20260510104549 52 27 7.0 19.0 0.00 0.04 0.00 67 1021.4
20260510103051 52 5 9.0 15.0 0.00 0.04 0.00 63 1021.5
20260510101557 52 59 10.0 17.0 0.00 0.04 0.00 65 1021.6
20260510100050 51 25 9.0 15.0 0.00 0.04 0.00 69 1021.7
20260510094549 52 88 13.0 18.0 0.00 0.04 0.00 68 1021.9
20260510093038 52 53 7.0 19.0 0.00 0.04 0.00 68 1021.9
20260510091533 51 19 7.0 16.0 0.00 0.04 0.00 68 1022.0
20260510090032 51 44 10.0 18.0 0.00 0.04 0.00 68 1022.0
20260510084533 48 5 7.0 14.0 0.00 0.04 0.00 71 1022.1
20260510083030 48 25 8.0 16.0 0.00 0.04 0.00 70 1022.1
20260510081538 49 38 14.0 19.0 0.00 0.04 0.00 69 1022.1
20260510080047 50 55 12.0 20.0 0.00 0.04 0.00 71 1022.0
20260510074526 48 15 11.0 16.0 0.00 0.04 0.00 75 1022.0
20260510073037 48 36 11.0 20.0 0.00 0.04 0.00 73 1022.0
20260510071520 47 28 12.0 19.0 0.00 0.04 0.00 77 1021.8
20260510070019 46 21 14.0 22.0 0.00 0.04 0.00 78 1021.7
20260510064518 46 30 13.0 20.0 0.00 0.04 0.00 77 1021.7
20260510063018 46 40 11.0 17.0 0.00 0.04 0.00 79 1021.7
20260510061515 45 356 10.0 17.0 0.00 0.04 0.00 81 1021.6
20260510060022 45 30 6.0 17.0 0.00 0.04 0.00 83 1021.7
20260510054510 44 15 8.0 13.0 0.00 0.04 0.00 84 1021.7
20260510053006 43 20 7.0 12.0 0.00 0.04 0.00 86 1021.9
20260510051505 42 31 6.0 12.0 0.00 0.04 0.00 87 1022.0
20260510050003 41 50 6.0 10.0 0.00 0.04 0.00 88 1022.1
20260510044503 41 32 4.0 8.0 0.00 0.04 0.00 88 1022.3
20260510043002 41 21 2.0 9.0 0.00 0.04 0.00 87 1022.3
20260510041609 41 27 4.0 12.0 0.00 0.04 0.00 87 1022.3
20260510040110 41 29 4.0 9.0 0.00 0.04 0.00 87 1022.5
20260510034556 42 20 5.0 12.0 0.00 0.04 0.00 86 1022.5
20260510033100 43 24 7.0 13.0 0.00 0.04 0.00 87 1022.5
20260510031555 43 29 8.0 13.0 0.00 0.04 0.00 87 1022.6
20260510030058 43 56 5.0 14.0 0.00 0.04 0.00 87 1022.5
20260510024552 43 23 8.0 12.0 0.00 0.04 0.00 87 1022.5
20260510023050 43 40 9.0 16.0 0.00 0.04 0.00 88 1022.5
20260510021637 42 15 6.0 13.0 0.00 0.04 0.00 88 1022.4
20260510020049 42 38 5.0 11.0 0.00 0.04 0.00 88 1022.3
20260510014554 43 44 6.0 13.0 0.00 0.04 0.00 88 1022.2
20260510013146 44 21 7.0 14.0 0.00 0.04 0.00 89 1022.2
20260510011542 44 33 6.0 12.0 0.00 0.04 0.00 89 1022.3
20260510010050 44 30 6.0 13.0 0.00 0.04 0.00 89 1022.4
20260510004541 43 15 8.0 14.0 0.00 0.04 0.00 88 1022.4
20260510003038 44 26 12.0 20.0 0.00 0.04 0.00 88 1022.5
20260510001535 44 46 9.0 16.0 0.00 0.04 0.00 89 1022.6
20260510000033 44 15 10.0 18.0 0.00 0.04 0.04 89 1022.6
20260509234533 44 39 10.0 18.0 0.00 0.04 0.04 90 1022.5
20260509233034 45 56 12.0 21.0 0.00 0.04 0.04 90 1022.5
20260509231528 45 32 13.0 18.0 0.00 0.04 0.04 91 1022.5
20260509230036 45 52 8.0 17.0 0.00 0.04 0.04 91 1022.5
20260509224527 45 32 8.0 14.0 0.00 0.04 0.04 92 1022.4
20260509223028 45 15 8.0 14.0 0.00 0.04 0.04 92 1022.5
20260509221527 45 10 8.0 14.0 0.00 0.04 0.04 92 1022.6
20260509220027 45 15 8.0 13.0 0.00 0.04 0.04 92 1022.8
20260509214525 45 1 8.0 15.0 0.00 0.04 0.04 93 1022.7
20260509213025 45 29 7.0 13.0 0.01 0.04 0.04 93 1022.7
20260509211523 45 44 6.0 14.0 0.01 0.04 0.04 94 1022.6